When you browse on this site, cookies collect data to enhance your experience and personalize the content and advertising you see.
Visit our Privacy Policy to learn more. By continuing to use the site, you agree to this use of cookies and data.
  • In Österreich
  • Länderverzeichnis
  • Für 7 Tage
  • Wassertemperatur
  • Wetterkarte
  • News
  • Widgets
  • user-avatar
    Anmelden

    Stündliche Wetter Izmaylovka

    Heute, 7 Juni, Sonntag

    Zeit Temperatur Niederschläge Wind Luftdruck Luftfeuchtigkeit
    00:00 +18°C° 0 mm 1 m/S 757 mmHg 83%
    01:00 +16°C° 0 mm 0 m/S 757 mmHg 84%
    02:00 +16°C° 0 mm 1 m/S 757 mmHg 85%
    03:00 +16°C° 0 mm 1 m/S 757 mmHg 86%
    04:00 +16°C° 0 mm 1 m/S 758 mmHg 86%
    05:00 +17°C° 0 mm 2 m/S 758 mmHg 83%
    06:00 +18°C° 0 mm 2 m/S 758 mmHg 80%
    07:00 +19°C° 0 mm 3 m/S 758 mmHg 77%
    08:00 +21°C° 0.3 mm 3 m/S 758 mmHg 72%
    09:00 +22°C° 0.3 mm 3 m/S 758 mmHg 68%
    10:00 +24°C° 0.3 mm 3 m/S 758 mmHg 63%
    11:00 +22°C° 0.9 mm 3 m/S 758 mmHg 66%
    12:00 +23°C° 0.9 mm 2 m/S 758 mmHg 68%
    13:00 +22°C° 0.9 mm 1 m/S 757 mmHg 71%
    14:00 +22°C° 0.3 mm 1 m/S 757 mmHg 74%
    15:00 +22°C° 0.3 mm 1 m/S 758 mmHg 76%
    16:00 +22°C° 0.3 mm 1 m/S 758 mmHg 78%
    17:00 +21°C° 2.4 mm 1 m/S 757 mmHg 84%
    18:00 +20°C° 2.4 mm 1 m/S 757 mmHg 90%
    19:00 +17°C° 2.4 mm 2 m/S 757 mmHg 95%
    20:00 +17°C° 0.7 mm 2 m/S 757 mmHg 95%
    21:00 +17°C° 0.7 mm 2 m/S 757 mmHg 96%
    22:00 +17°C° 0.7 mm 2 m/S 757 mmHg 96%
    23:00 +17°C° 0.2 mm 2 m/S 757 mmHg 95%

    Morgen, 8 Juni, Montag

    Zeit Temperatur Niederschläge Wind Luftdruck Luftfeuchtigkeit
    00:00 +17°C° 0.2 mm 2 m/S 757 mmHg 94%
    01:00 +17°C° 0.2 mm 2 m/S 757 mmHg 94%
    02:00 +17°C° 0.1 mm 2 m/S 757 mmHg 94%
    03:00 +16°C° 0.1 mm 2 m/S 757 mmHg 95%
    04:00 +16°C° 0.1 mm 2 m/S 757 mmHg 95%
    05:00 +17°C° 0.3 mm 3 m/S 757 mmHg 92%
    06:00 +18°C° 0.3 mm 3 m/S 757 mmHg 89%
    07:00 +19°C° 0.3 mm 3 m/S 757 mmHg 87%
    08:00 +20°C° 1.1 mm 4 m/S 757 mmHg 81%
    09:00 +21°C° 1.1 mm 4 m/S 757 mmHg 75%
    10:00 +23°C° 1.1 mm 4 m/S 757 mmHg 69%
    11:00 +23°C° 1.9 mm 4 m/S 757 mmHg 67%
    12:00 +25°C° 1.9 mm 4 m/S 757 mmHg 64%
    13:00 +25°C° 1.9 mm 4 m/S 757 mmHg 62%
    14:00 +25°C° 1.7 mm 3 m/S 757 mmHg 62%
    15:00 +25°C° 1.7 mm 3 m/S 756 mmHg 62%
    16:00 +25°C° 1.7 mm 3 m/S 756 mmHg 62%
    17:00 +25°C° 0.9 mm 3 m/S 756 mmHg 66%
    18:00 +24°C° 0.9 mm 3 m/S 756 mmHg 69%
    19:00 +23°C° 0.9 mm 2 m/S 756 mmHg 73%
    20:00 +21°C° 0.9 mm 3 m/S 756 mmHg 77%
    21:00 +19°C° 0.9 mm 3 m/S 756 mmHg 81%
    22:00 +18°C° 0.9 mm 3 m/S 757 mmHg 85%
    23:00 +18°C° 0.6 mm 3 m/S 757 mmHg 82%

    übermorgen, 9 Juni, Dienstag

    Zeit Temperatur Niederschläge Wind Luftdruck Luftfeuchtigkeit
    00:00 +18°C° 0.6 mm 3 m/S 757 mmHg 79%
    01:00 +18°C° 0.6 mm 2 m/S 757 mmHg 76%
    02:00 +18°C° 0 mm 3 m/S 757 mmHg 76%
    03:00 +17°C° 0 mm 3 m/S 757 mmHg 76%
    04:00 +17°C° 0 mm 4 m/S 758 mmHg 76%
    05:00 +17°C° 0 mm 4 m/S 758 mmHg 74%
    06:00 +18°C° 0 mm 4 m/S 758 mmHg 71%
    07:00 +19°C° 0 mm 5 m/S 759 mmHg 69%
    08:00 +20°C° 0 mm 5 m/S 759 mmHg 64%
    09:00 +22°C° 0 mm 6 m/S 759 mmHg 59%
    10:00 +24°C° 0 mm 6 m/S 760 mmHg 55%
    11:00 +26°C° 0 mm 6 m/S 760 mmHg 50%
    12:00 +27°C° 0 mm 6 m/S 760 mmHg 46%
    13:00 +29°C° 0 mm 6 m/S 760 mmHg 41%
    14:00 +29°C° 0 mm 5 m/S 760 mmHg 42%
    15:00 +29°C° 0 mm 5 m/S 760 mmHg 43%
    16:00 +29°C° 0 mm 5 m/S 760 mmHg 44%
    17:00 +27°C° 0 mm 4 m/S 759 mmHg 49%
    18:00 +26°C° 0 mm 3 m/S 759 mmHg 55%
    19:00 +24°C° 0 mm 3 m/S 759 mmHg 60%
    20:00 +24°C° 0 mm 3 m/S 759 mmHg 60%
    21:00 +22°C° 0 mm 3 m/S 760 mmHg 59%
    22:00 +21°C° 0 mm 3 m/S 760 mmHg 59%
    23:00 +21°C° 0 mm 3 m/S 760 mmHg 57%

    10 Juni, Mittwoch

    Zeit Temperatur Niederschläge Wind Luftdruck Luftfeuchtigkeit
    00:00 +21°C° 0 mm 4 m/S 760 mmHg 55%
    01:00 +21°C° 0 mm 4 m/S 760 mmHg 53%
    02:00 +21°C° 0 mm 4 m/S 760 mmHg 52%
    03:00 +21°C° 0 mm 4 m/S 760 mmHg 51%
    04:00 +21°C° 0 mm 5 m/S 760 mmHg 49%
    05:00 +20°C° 0 mm 5 m/S 760 mmHg 54%
    06:00 +20°C° 0 mm 5 m/S 760 mmHg 58%
    07:00 +20°C° 0 mm 5 m/S 761 mmHg 62%
    08:00 +21°C° 0 mm 4 m/S 761 mmHg 61%
    09:00 +22°C° 0 mm 4 m/S 761 mmHg 59%
    10:00 +23°C° 0 mm 4 m/S 761 mmHg 58%
    11:00 +26°C° 0 mm 4 m/S 761 mmHg 53%
    12:00 +27°C° 0 mm 4 m/S 761 mmHg 49%
    13:00 +29°C° 0 mm 4 m/S 761 mmHg 44%
    14:00 +29°C° 0 mm 4 m/S 761 mmHg 44%
    15:00 +29°C° 0 mm 4 m/S 761 mmHg 44%
    16:00 +30°C° 0 mm 4 m/S 760 mmHg 44%
    17:00 +29°C° 0 mm 3 m/S 760 mmHg 47%
    18:00 +28°C° 0 mm 3 m/S 760 mmHg 50%
    19:00 +27°C° 0 mm 3 m/S 760 mmHg 54%
    20:00 +26°C° 0 mm 3 m/S 760 mmHg 54%
    21:00 +25°C° 0 mm 4 m/S 760 mmHg 54%
    22:00 +22°C° 0 mm 4 m/S 760 mmHg 54%
    23:00 +22°C° 0 mm 4 m/S 760 mmHg 54%

    11 Juni, Donnerstag

    Zeit Temperatur Niederschläge Wind Luftdruck Luftfeuchtigkeit
    00:00 +22°C° 0 mm 3 m/S 760 mmHg 54%
    01:00 +21°C° 0 mm 3 m/S 760 mmHg 55%
    02:00 +21°C° 0 mm 3 m/S 759 mmHg 56%
    03:00 +21°C° 0 mm 2 m/S 759 mmHg 57%
    04:00 +20°C° 0 mm 2 m/S 759 mmHg 58%
    05:00 +21°C° 0 mm 3 m/S 759 mmHg 60%
    06:00 +21°C° 0 mm 3 m/S 759 mmHg 62%
    07:00 +22°C° 0 mm 4 m/S 759 mmHg 64%
    08:00 +23°C° 0 mm 4 m/S 759 mmHg 61%
    09:00 +26°C° 0 mm 5 m/S 759 mmHg 58%
    10:00 +28°C° 0 mm 5 m/S 759 mmHg 55%
    11:00 +29°C° 0 mm 5 m/S 759 mmHg 50%
    12:00 +30°C° 0 mm 4 m/S 758 mmHg 46%
    13:00 +33°C° 0 mm 4 m/S 758 mmHg 41%
    14:00 +33°C° 0 mm 4 m/S 758 mmHg 39%
    15:00 +33°C° 0 mm 3 m/S 758 mmHg 37%
    16:00 +34°C° 0 mm 3 m/S 757 mmHg 34%
    17:00 +31°C° 0 mm 3 m/S 757 mmHg 40%
    18:00 +30°C° 0 mm 3 m/S 757 mmHg 46%
    19:00 +29°C° 0 mm 3 m/S 756 mmHg 51%
    20:00 +27°C° 0 mm 3 m/S 756 mmHg 53%
    21:00 +25°C° 0 mm 3 m/S 756 mmHg 54%
    22:00 +24°C° 0 mm 3 m/S 756 mmHg 56%
    23:00 +22°C° 0 mm 3 m/S 756 mmHg 56%

    12 Juni, Freitag

    Zeit Temperatur Niederschläge Wind Luftdruck Luftfeuchtigkeit
    00:00 +23°C° 0 mm 2 m/S 756 mmHg 56%
    01:00 +21°C° 0 mm 2 m/S 756 mmHg 57%
    02:00 +21°C° 0 mm 2 m/S 755 mmHg 58%
    03:00 +21°C° 0 mm 1 m/S 755 mmHg 60%
    04:00 +21°C° 0 mm 1 m/S 755 mmHg 61%
    05:00 +22°C° 0.2 mm 1 m/S 755 mmHg 61%
    06:00 +23°C° 0.2 mm 1 m/S 755 mmHg 61%
    07:00 +24°C° 0.2 mm 1 m/S 755 mmHg 61%
    08:00 +26°C° 0 mm 1 m/S 755 mmHg 56%
    09:00 +28°C° 0 mm 1 m/S 755 mmHg 51%
    10:00 +29°C° 0 mm 2 m/S 755 mmHg 46%
    11:00 +30°C° 0 mm 1 m/S 754 mmHg 43%
    12:00 +31°C° 0 mm 1 m/S 754 mmHg 40%
    13:00 +32°C° 0 mm 1 m/S 754 mmHg 36%
    14:00 +32°C° 0 mm 1 m/S 753 mmHg 35%
    15:00 +33°C° 0 mm 1 m/S 753 mmHg 34%
    16:00 +33°C° 0 mm 1 m/S 753 mmHg 32%
    17:00 +32°C° 0 mm 1 m/S 752 mmHg 37%
    18:00 +31°C° 0 mm 1 m/S 752 mmHg 42%
    19:00 +29°C° 0 mm 0 m/S 752 mmHg 46%
    20:00 +29°C° 0.3 mm 1 m/S 752 mmHg 49%
    21:00 +27°C° 0.3 mm 1 m/S 752 mmHg 52%
    22:00 +25°C° 0.3 mm 1 m/S 752 mmHg 55%
    23:00 +24°C° 0.3 mm 1 m/S 752 mmHg 60%
    Mehr zeigen